TimeFJT,TemperatureF,Dew PointF,Humidity,Sea Level PressureIn,VisibilityMPH,Wind Direction,Wind SpeedMPH,Gust SpeedMPH,PrecipitationIn,Events,Conditions,WindDirDegrees,DateUTC
12:00 AM,78,76,91,29.73,31,Calm,Calm,,,,Partly Cloudy,,2013-02-05 12:00:00
12:00 AM,77.0,75.2,94,29.71,31.1,Calm,Calm,-,N/A,,Partly Cloudy,0,2013-02-05 12:00:00
1:00 AM,77.0,75.2,94,29.68,31.1,Calm,Calm,-,N/A,,Partly Cloudy,0,2013-02-05 13:00:00
2:00 AM,77.0,75.2,94,29.68,31.1,Calm,Calm,-,N/A,,Partly Cloudy,0,2013-02-05 14:00:00
3:00 AM,75,74,97,29.66,31,Calm,Calm,,,,Partly Cloudy,,2013-02-05 15:00:00
3:00 AM,75.2,75.2,100,29.65,31.1,Calm,Calm,-,N/A,,Partly Cloudy,0,2013-02-05 15:00:00
4:00 AM,75.2,75.2,100,29.65,31.1,Calm,Calm,-,N/A,,Partly Cloudy,0,2013-02-05 16:00:00
5:00 AM,73.4,73.4,100,29.65,31.1,Calm,Calm,-,N/A,,Partly Cloudy,0,2013-02-05 17:00:00
6:00 AM,74,74,98,29.67,31,Calm,Calm,,,,Partly Cloudy,,2013-02-05 18:00:00
6:00 AM,73.4,73.4,100,29.65,31.1,Calm,Calm,-,N/A,,Partly Cloudy,0,2013-02-05 18:00:00
7:00 AM,75.2,75.2,100,29.68,31.1,Calm,Calm,-,N/A,,Partly Cloudy,0,2013-02-05 19:00:00
8:00 AM,80.6,77.0,89,29.68,31.1,Calm,Calm,-,N/A,,Partly Cloudy,0,2013-02-05 20:00:00
9:00 AM,82,76,78,29.70,31,South,5.8,,,,Partly Cloudy,190,2013-02-05 21:00:00
9:00 AM,84.2,77.0,79,29.68,31.1,SSW,8.1,-,N/A,,Mostly Cloudy,200,2013-02-05 21:00:00
10:00 AM,84.2,77.0,79,29.68,31.1,SSW,8.1,-,N/A,,Mostly Cloudy,200,2013-02-05 22:00:00
11:00 AM,84.2,77.0,79,29.68,31.1,South,9.2,-,N/A,,Mostly Cloudy,190,2013-02-05 23:00:00
12:00 PM,87,77,64,29.68,31,South,9.2,,,,Partly Cloudy,190,2013-02-06 00:00:00
12:00 PM,87.8,77.0,70,29.68,31.1,South,9.2,-,N/A,,Mostly Cloudy,190,2013-02-06 00:00:00
1:00 PM,84.2,75.2,74,29.65,31.1,ESE,10.4,-,N/A,,Mostly Cloudy,120,2013-02-06 01:00:00
2:00 PM,86.0,75.2,70,29.65,31.1,SSE,11.5,-,N/A,,Scattered Clouds,150,2013-02-06 02:00:00
3:00 PM,86,75,62,29.64,31,South,6.9,,,,Partly Cloudy,170,2013-02-06 03:00:00
3:00 PM,86.0,75.2,70,29.62,31.1,South,6.9,-,N/A,,Scattered Clouds,170,2013-02-06 03:00:00
4:00 PM,86.0,73.4,66,29.62,31.1,ESE,6.9,-,N/A,,Scattered Clouds,120,2013-02-06 04:00:00
5:00 PM,84.2,75.2,74,29.62,31.1,SSE,8.1,-,N/A,,Scattered Clouds,160,2013-02-06 05:00:00
6:00 PM,82,77,81,29.66,31,SE,5.8,,,,Partly Cloudy,140,2013-02-06 06:00:00
6:00 PM,82.4,77.0,84,29.65,31.1,SE,5.8,-,N/A,,Mostly Cloudy,140,2013-02-06 06:00:00
7:00 PM,77.0,73.4,89,29.68,6.2,East,11.5,-,N/A,Rain,Light Rain Showers,90,2013-02-06 07:00:00
8:00 PM,78.8,77.0,94,29.71,12.4,Calm,Calm,-,N/A,,Scattered Clouds,0,2013-02-06 08:00:00
9:00 PM,78.8,77.0,94,29.71,18.6,Calm,Calm,-,N/A,,Scattered Clouds,0,2013-02-06 09:00:00
10:00 PM,77.0,75.2,94,29.74,18.6,Calm,Calm,-,N/A,,Mostly Cloudy,0,2013-02-06 10:00:00
11:00 PM,77.0,75.2,94,29.74,12.4,West,8.1,-,N/A,Rain,Light Rain Showers,280,2013-02-06 11:00:00